Time,TemperatureF,DewpointF,PressureIn,WindDirection,WindDirectionDegrees,WindSpeedMPH,WindSpeedGustMPH,Humidity,HourlyPrecipIn,Conditions,Clouds,dailyrainin,SoftwareType,DateUTC
2013-01-19 00:14:00,19.6,13.0,30.21,South,180,0.0,-999.0,75,-99.99,,,0.00,Acu-Link.com,2013-01-19 05:14:00,
2013-01-19 00:29:00,19.6,13.3,30.20,South,180,0.0,-999.0,76,-99.99,,,0.00,Acu-Link.com,2013-01-19 05:29:00,
2013-01-19 00:45:00,19.8,13.5,30.20,South,180,0.0,-999.0,76,-99.99,,,0.00,Acu-Link.com,2013-01-19 05:45:00,
2013-01-19 01:00:00,19.9,13.6,30.20,South,180,0.0,-999.0,76,-99.99,,,0.00,Acu-Link.com,2013-01-19 06:00:00,
2013-01-19 01:15:00,20.3,13.7,30.19,South,180,0.0,-999.0,75,-99.99,,,0.00,Acu-Link.com,2013-01-19 06:15:00,
2013-01-19 01:31:00,20.5,14.2,30.18,South,180,2.2,-999.0,76,-99.99,,,0.00,Acu-Link.com,2013-01-19 06:31:00,
2013-01-19 01:46:00,21.0,14.6,30.18,South,180,0.0,-999.0,76,-99.99,,,0.00,Acu-Link.com,2013-01-19 06:46:00,
2013-01-19 02:01:00,21.4,14.7,30.18,South,180,0.0,-999.0,75,-99.99,,,0.00,Acu-Link.com,2013-01-19 07:01:00,
2013-01-19 02:17:00,21.9,14.9,30.17,South,180,0.0,-999.0,74,-99.99,,,0.00,Acu-Link.com,2013-01-19 07:17:00,
2013-01-19 02:32:00,22.1,15.4,30.17,South,180,0.0,-999.0,75,-99.99,,,0.00,Acu-Link.com,2013-01-19 07:32:00,
2013-01-19 02:47:00,22.8,15.8,30.16,South,180,1.7,-999.0,74,-99.99,,,0.00,Acu-Link.com,2013-01-19 07:47:00,
2013-01-19 03:03:00,23.0,15.7,30.16,South,180,0.0,-999.0,73,-99.99,,,0.00,Acu-Link.com,2013-01-19 08:03:00,
2013-01-19 03:18:00,23.0,15.3,30.14,SSE,157,0.0,-999.0,72,-99.99,,,0.00,Acu-Link.com,2013-01-19 08:18:00,
2013-01-19 03:33:00,23.4,15.7,30.14,NE,45,0.0,-999.0,72,-99.99,,,0.00,Acu-Link.com,2013-01-19 08:33:00,
2013-01-19 03:49:00,23.0,16.0,30.14,NE,45,0.0,-999.0,74,-99.99,,,0.00,Acu-Link.com,2013-01-19 08:49:00,
2013-01-19 04:36:00,23.2,16.2,30.14,NE,45,0.0,-999.0,74,-99.99,,,0.00,Acu-Link.com,2013-01-19 09:36:00,
2013-01-19 04:51:00,22.8,16.1,30.13,NE,45,1.1,-999.0,75,-99.99,,,0.00,Acu-Link.com,2013-01-19 09:51:00,
2013-01-19 05:06:00,23.2,16.2,30.13,NE,45,0.0,-999.0,74,-99.99,,,0.00,Acu-Link.com,2013-01-19 10:06:00,
2013-01-19 05:21:00,23.0,16.3,30.11,NE,45,0.0,-999.0,75,-99.99,,,0.00,Acu-Link.com,2013-01-19 10:21:00,
2013-01-19 05:51:00,22.1,16.0,30.11,NE,45,0.0,-999.0,77,-99.99,,,0.00,Acu-Link.com,2013-01-19 10:51:00,
2013-01-19 06:07:00,21.9,16.1,30.12,NE,45,0.0,-999.0,78,-99.99,,,0.00,Acu-Link.com,2013-01-19 11:07:00,
2013-01-19 07:57:00,21.2,16.3,30.10,NE,45,1.7,-999.0,81,-99.99,,,0.00,Acu-Link.com,2013-01-19 12:57:00,
2013-01-19 08:12:00,21.6,16.7,30.10,NE,45,1.7,-999.0,81,-99.99,,,0.00,Acu-Link.com,2013-01-19 13:12:00,
2013-01-19 08:28:00,22.1,16.9,30.10,NE,45,0.0,-999.0,80,-99.99,,,0.00,Acu-Link.com,2013-01-19 13:28:00,
2013-01-19 08:43:00,22.6,17.4,30.10,NE,45,0.0,-999.0,80,-99.99,,,0.00,Acu-Link.com,2013-01-19 13:43:00,
2013-01-19 08:58:00,23.9,18.1,30.10,NE,45,0.0,-999.0,78,-99.99,,,0.00,Acu-Link.com,2013-01-19 13:58:00,
2013-01-19 09:14:00,24.6,18.4,30.10,NE,45,0.0,-999.0,77,-99.99,,,0.00,Acu-Link.com,2013-01-19 14:14:00,
2013-01-19 09:29:00,26.6,19.1,30.10,NE,45,0.0,-999.0,73,-99.99,,,0.00,Acu-Link.com,2013-01-19 14:29:00,
2013-01-19 09:44:00,27.7,19.5,30.10,NNE,22,1.1,-999.0,71,-99.99,,,0.00,Acu-Link.com,2013-01-19 14:44:00,
2013-01-19 09:59:00,30.4,20.8,30.09,NNE,22,1.7,-999.0,67,-99.99,,,0.00,Acu-Link.com,2013-01-19 14:59:00,
2013-01-19 10:15:00,31.5,21.1,30.09,SW,225,2.7,-999.0,65,-99.99,,,0.00,Acu-Link.com,2013-01-19 15:15:00,
2013-01-19 10:30:00,32.2,21.4,30.08,WSW,247,1.7,-999.0,64,-99.99,,,0.00,Acu-Link.com,2013-01-19 15:30:00,
2013-01-19 10:45:00,32.9,21.3,30.07,WSW,247,2.7,-999.0,62,-99.99,,,0.00,Acu-Link.com,2013-01-19 15:45:00,
2013-01-19 11:16:00,34.5,22.1,30.05,NW,315,2.7,-999.0,60,-99.99,,,0.00,Acu-Link.com,2013-01-19 16:16:00,
2013-01-19 11:31:00,35.2,22.3,30.04,WSW,247,2.2,-999.0,59,-99.99,,,0.00,Acu-Link.com,2013-01-19 16:31:00,
2013-01-19 11:47:00,36.9,23.1,30.02,South,180,1.7,-999.0,57,-99.99,,,0.00,Acu-Link.com,2013-01-19 16:47:00,
2013-01-19 12:02:00,37.9,23.6,30.00,NW,315,2.2,-999.0,56,-99.99,,,0.00,Acu-Link.com,2013-01-19 17:02:00,
2013-01-19 12:17:00,41.4,23.7,29.99,SW,225,2.7,-999.0,49,-99.99,,,0.00,Acu-Link.com,2013-01-19 17:17:00,
2013-01-19 12:33:00,42.1,24.3,29.98,SSW,202,2.2,-999.0,49,-99.99,,,0.00,Acu-Link.com,2013-01-19 17:33:00,
2013-01-19 12:48:00,43.0,24.2,29.97,SW,225,3.7,-999.0,47,-99.99,,,0.00,Acu-Link.com,2013-01-19 17:48:00,
2013-01-19 13:03:00,43.3,24.4,29.97,West,270,3.2,-999.0,47,-99.99,,,0.00,Acu-Link.com,2013-01-19 18:03:00,
2013-01-19 13:18:00,44.1,24.7,29.96,NE,45,2.7,-999.0,46,-99.99,,,0.00,Acu-Link.com,2013-01-19 18:18:00,
2013-01-19 13:33:00,44.6,25.1,29.95,ENE,67,2.2,-999.0,46,-99.99,,,0.00,Acu-Link.com,2013-01-19 18:33:00,
2013-01-19 13:49:00,45.3,24.7,29.95,SSW,202,2.2,-999.0,44,-99.99,,,0.00,Acu-Link.com,2013-01-19 18:49:00,
2013-01-19 14:04:00,45.1,25.0,29.93,ENE,67,0.0,-999.0,45,-99.99,,,0.00,Acu-Link.com,2013-01-19 19:04:00,
2013-01-19 14:19:00,46.0,24.8,29.93,SSW,202,3.2,-999.0,43,-99.99,,,0.00,Acu-Link.com,2013-01-19 19:19:00,
2013-01-19 14:50:00,46.0,25.3,29.91,SSW,202,3.2,-999.0,44,-99.99,,,0.00,Acu-Link.com,2013-01-19 19:50:00,
2013-01-19 15:05:00,45.9,25.8,29.91,SW,225,2.2,-999.0,45,-99.99,,,0.00,Acu-Link.com,2013-01-19 20:05:00,
2013-01-19 15:20:00,45.5,25.4,29.90,SSW,202,1.7,-999.0,45,-99.99,,,0.00,Acu-Link.com,2013-01-19 20:20:00,
2013-01-19 15:51:00,45.3,25.8,29.89,South,180,1.7,-999.0,46,-99.99,,,0.00,Acu-Link.com,2013-01-19 20:51:00,
2013-01-19 16:52:00,43.3,26.4,29.86,NW,315,0.0,-999.0,51,-99.99,,,0.00,Acu-Link.com,2013-01-19 21:52:00,
2013-01-19 17:23:00,41.0,27.4,29.86,NW,315,0.0,-999.0,58,-99.99,,,0.00,Acu-Link.com,2013-01-19 22:23:00,
2013-01-19 17:38:00,39.6,27.7,29.86,NW,315,0.0,-999.0,62,-99.99,,,0.00,Acu-Link.com,2013-01-19 22:38:00,
2013-01-19 17:54:00,38.7,27.6,29.85,NW,315,0.0,-999.0,64,-99.99,,,0.00,Acu-Link.com,2013-01-19 22:54:00,
2013-01-19 18:24:00,37.4,27.1,29.85,NW,315,0.0,-999.0,66,-99.99,,,0.00,Acu-Link.com,2013-01-19 23:24:00,
2013-01-19 18:39:00,37.4,27.5,29.84,NW,315,0.0,-999.0,67,-99.99,,,0.00,Acu-Link.com,2013-01-19 23:39:00,
2013-01-19 18:55:00,37.8,27.5,29.84,ESE,112,1.7,-999.0,66,-99.99,,,0.00,Acu-Link.com,2013-01-19 23:55:00,
2013-01-19 19:10:00,38.1,27.8,29.83,ESE,112,2.2,-999.0,66,-99.99,,,0.00,Acu-Link.com,2013-01-20 00:10:00,
2013-01-19 19:25:00,37.9,28.3,29.83,NNE,22,1.7,-999.0,68,-99.99,,,0.00,Acu-Link.com,2013-01-20 00:25:00,
2013-01-19 20:11:00,37.2,28.3,29.81,North,0,1.1,-999.0,70,-99.99,,,0.00,Acu-Link.com,2013-01-20 01:11:00,
2013-01-19 20:27:00,37.2,28.3,29.80,NW,315,0.0,-999.0,70,-99.99,,,0.00,Acu-Link.com,2013-01-20 01:27:00,
2013-01-19 20:42:00,39.7,28.5,29.79,NNW,337,0.0,-999.0,64,-99.99,,,0.00,Acu-Link.com,2013-01-20 01:42:00,
2013-01-19 20:57:00,42.8,28.6,29.78,NNE,22,4.7,-999.0,57,-99.99,,,0.00,Acu-Link.com,2013-01-20 01:57:00,
2013-01-19 21:28:00,44.4,29.3,29.76,SSW,202,3.7,-999.0,55,-99.99,,,0.00,Acu-Link.com,2013-01-20 02:28:00,
2013-01-19 21:43:00,44.4,29.3,29.76,South,180,2.7,-999.0,55,-99.99,,,0.00,Acu-Link.com,2013-01-20 02:43:00,
2013-01-19 21:59:00,44.1,29.0,29.75,South,180,3.7,-999.0,55,-99.99,,,0.00,Acu-Link.com,2013-01-20 02:59:00,
2013-01-19 22:14:00,44.1,29.4,29.75,West,270,2.7,-999.0,56,-99.99,,,0.00,Acu-Link.com,2013-01-20 03:14:00,
2013-01-19 22:44:00,43.3,29.1,29.74,South,180,1.7,-999.0,57,-99.99,,,0.00,Acu-Link.com,2013-01-20 03:44:00,
2013-01-19 23:00:00,42.4,29.1,29.74,ESE,112,1.7,-999.0,59,-99.99,,,0.00,Acu-Link.com,2013-01-20 04:00:00,
2013-01-19 23:15:00,41.7,28.9,29.72,SSW,202,1.7,-999.0,60,-99.99,,,0.00,Acu-Link.com,2013-01-20 04:15:00,
2013-01-19 23:30:00,41.2,28.8,29.71,SSW,202,0.0,-999.0,61,-99.99,,,0.00,Acu-Link.com,2013-01-20 04:30:00,